Weather History for Ft Lauderdale, FL

Change the Weather History Date:

Sunday, July 27, 2014

  Actual Average Record
Temperature  
Mean Temperature 86 °F 85 °F  
Max Temperature 92 °F 91 °F 96 °F (1969)
Min Temperature 79 °F 79 °F 69 °F (1928)
Degree Days  
Heating Degree Days 0 0  
Month to date heating degree days 0 0  
Since 1 June heating degree days 0 0  
Since 1 July heating degree days 0 0  
Cooling Degree Days 21 20  
Month to date cooling degree days 530 521  
Year to date cooling degree days 2581 2482  
Since 1 June cooling degree days 1046 1064  
Growing Degree Days 36 (Base 50)    
Moisture  
Dew Point 74 °F    
Average Humidity 67    
Maximum Humidity 85    
Minimum Humidity 49    
Precipitation  
Precipitation 0.00 in 0.18 in 5.27 in (1915)
Month to date precipitation 8.73 5.27  
Year to date precipitation 37.97 32.92  
Snow  
Snow 0.00 in - - ()
Month to date snowfall 0.0  
Since 1 June snowfall 0.0  
Since 1 July snowfall 0.0  
Snow Depth 0.00 in    
Sea Level Pressure  
Sea Level Pressure 30.08 in    
Wind  
Wind Speed 5 mph (SE)    
Max Wind Speed 17 mph    
Max Gust Speed 17 mph    
Visibility 10 miles    
Events      
T = Trace of Precipitation, MM = Missing Value Source: NWS Daily Summary

Daily Weather History Graph

Daily Weather History Graph

Search for Another Location

Airport:

Trip Planner

Search our weather history database for the weather conditions in past years. The results will help you decide how hot, cold, wet, or windy it might be!

Date:

Astronomy

Jul. 27, 2014 Rise Set
Actual Time 6:43 AM EDT 8:10 PM EDT
Civil Twilight 6:18 AM EDT 8:35 PM EDT
Nautical Twilight 5:49 AM EDT 9:04 PM EDT
Astronomical Twilight 5:17 AM EDT 9:35 PM EDT
Moon 7:19 AM EDT (7/27) 8:31 PM EDT (7/27)
Length of Visible Light 14h 16m
Length of Day
13h 26m
New Moon, 0% of the Moon is Illuminated
Jul 27
New Moon
Aug 3
First Quarter
Aug 10
Full
Aug 17
Last Quarter
Aug 25
New

Hourly Weather History & Observations

Time (EDT) Temp. Heat Index Dew Point Humidity Pressure Visibility Wind Dir Wind Speed Gust Speed Precip Events Conditions
12:53 AM 82.9 °F 89.4 °F 73.9 °F 74% 30.08 in 10.0 mi Calm Calm - N/A   Scattered Clouds
1:53 AM 82.0 °F 89.4 °F 75.9 °F 82% 30.08 in 10.0 mi Calm Calm - N/A   Clear
2:53 AM 80.1 °F 85.4 °F 75.9 °F 87% 30.06 in 10.0 mi Calm Calm - N/A   Clear
3:53 AM 80.1 °F 85.4 °F 75.9 °F 87% 30.06 in 10.0 mi Calm Calm - N/A   Partly Cloudy
4:53 AM 80.1 °F 85.4 °F 75.9 °F 87% 30.06 in 10.0 mi Calm Calm - N/A   Scattered Clouds
5:53 AM 81.0 °F 87.3 °F 75.9 °F 85% 30.07 in 10.0 mi Calm Calm - N/A   Partly Cloudy
6:53 AM 80.1 °F 85.4 °F 75.9 °F 87% 30.08 in 10.0 mi Calm Calm - N/A   Scattered Clouds
7:53 AM 82.9 °F 91.8 °F 77.0 °F 82% 30.09 in 10.0 mi Calm Calm - N/A   Partly Cloudy
8:53 AM 84.9 °F 94.1 °F 75.9 °F 74% 30.11 in 10.0 mi Calm Calm - N/A   Partly Cloudy
9:53 AM 87.1 °F 96.3 °F 75.0 °F 67% 30.12 in 10.0 mi Calm Calm - N/A   Partly Cloudy
10:53 AM 90.0 °F 99.0 °F 73.9 °F 59% 30.12 in 10.0 mi Variable 6.9 mph - N/A   Mostly Cloudy
11:53 AM 91.0 °F 100.4 °F 73.9 °F 57% 30.11 in 10.0 mi Variable 6.9 mph - N/A   Partly Cloudy
12:53 PM 91.0 °F 99.3 °F 73.0 °F 55% 30.10 in 10.0 mi ESE 11.5 mph - N/A   Partly Cloudy
1:53 PM 91.9 °F 97.4 °F 70.0 °F 48% 30.09 in 10.0 mi ESE 8.1 mph - N/A   Partly Cloudy
2:53 PM 91.9 °F 99.5 °F 72.0 °F 52% 30.07 in 10.0 mi SE 11.5 mph - N/A   Partly Cloudy
3:53 PM 91.9 °F 99.5 °F 72.0 °F 52% 30.06 in 10.0 mi SE 9.2 mph - N/A   Mostly Cloudy
4:53 PM 91.9 °F 99.5 °F 72.0 °F 52% 30.05 in 10.0 mi SSE 13.8 mph - N/A   Mostly Cloudy
5:53 PM 91.0 °F 99.3 °F 73.0 °F 55% 30.05 in 10.0 mi SE 16.1 mph - N/A   Mostly Cloudy
6:53 PM 90.0 °F 97.9 °F 73.0 °F 57% 30.06 in 10.0 mi SSE 17.3 mph - N/A   Mostly Cloudy
7:53 PM 87.1 °F 94.5 °F 73.0 °F 63% 30.06 in 10.0 mi SSE 9.2 mph - N/A   Mostly Cloudy
8:53 PM 87.1 °F 94.5 °F 73.0 °F 63% 30.07 in 10.0 mi SSE 6.9 mph - N/A   Mostly Cloudy
9:53 PM 87.1 °F 94.5 °F 73.0 °F 63% 30.07 in 10.0 mi SSE 6.9 mph - N/A   Mostly Cloudy
10:53 PM 84.9 °F 92.1 °F 73.9 °F 69% 30.09 in 10.0 mi Variable 3.5 mph - N/A   Mostly Cloudy
11:53 PM 84.0 °F 91.9 °F 75.0 °F 74% 30.09 in 10.0 mi Calm Calm - N/A   Mostly Cloudy